F4DYW-13 Weather Reports


time (UTC)temp
C
wind
direction
speed
KPH
gust
KPH
rain 1hr
cm
rain 24hr
cm
rain mn
cm
humidity
%
barometer
mb
20260507193625 18 0 0.0 0.0 0.00 0.00 0.00 65 1015.0
20260507191907 18 0 0.0 0.0 0.00 0.00 0.00 65 1014.8
20260507190151 18 0 0.0 0.0 0.00 0.00 0.00 64 1014.7
20260507184435 18 0 0.0 0.0 0.00 0.00 0.00 63 1014.7
20260507182720 18 0 0.0 0.0 0.00 0.00 0.00 63 1014.4
20260507171817 18 0 0.0 0.0 0.00 0.00 0.00 60 1014.0
20260507162630 18 0 0.0 0.0 0.00 0.00 0.00 60 1014.0
20260507155159 18 0 0.0 0.0 0.00 0.00 0.00 59 1013.7
20260507151728 19 0 0.0 0.0 0.00 0.00 0.00 56 1013.9
20260507150012 21 0 0.0 0.0 0.00 0.00 0.00 50 1014.0
20260507144257 20 0 0.0 0.0 0.00 0.00 0.00 55 1014.2
20260507142541 20 0 0.0 0.0 0.00 0.00 0.00 54 1014.4
20260507140826 18 0 0.0 0.0 0.00 0.00 0.00 62 1014.6
20260507135109 18 0 0.0 0.0 0.00 0.00 0.00 62 1014.8
20260507131643 18 0 0.0 0.0 0.00 0.00 0.00 62 1015.0
20260507124211 18 0 0.0 0.0 0.00 0.00 0.00 61 1015.0
20260507122456 18 0 0.0 0.0 0.00 0.00 0.00 62 1015.1
20260507113306 18 0 0.0 0.0 0.00 0.00 0.00 62 1015.5
20260507111548 18 0 0.0 0.0 0.00 0.00 0.00 62 1015.7
20260507104117 18 0 0.0 0.0 0.00 0.00 0.00 63 1015.9
20260507100646 17 0 0.0 0.0 0.00 0.00 0.00 64 1016.1
20260507094931 17 0 0.0 0.0 0.00 0.00 0.00 64 1016.3
20260507085745 17 0 0.0 0.0 0.00 0.00 0.00 65 1016.3
20260507080555 17 0 0.0 0.0 0.00 0.00 0.00 65 1016.4
20260507074842 17 0 0.0 0.0 0.00 0.00 0.00 65 1016.4
20260507073125 17 0 0.0 0.0 0.00 0.00 0.00 66 1016.5
20260507071409 17 0 0.0 0.0 0.00 0.00 0.00 66 1016.4
20260507065653 17 0 0.0 0.0 0.00 0.00 0.00 66 1016.4
20260507063937 17 0 0.0 0.0 0.00 0.00 0.00 65 1016.4
20260507062221 17 0 0.0 0.0 0.00 0.00 0.00 65 1016.3
20260507054750 17 0 0.0 0.0 0.00 0.00 0.00 65 1016.2
20260507040422 17 0 0.0 0.0 0.00 0.00 0.00 66 1015.6
20260507034701 17 0 0.0 0.0 0.00 0.00 0.00 66 1015.5
20260507031230 17 0 0.0 0.0 0.00 0.00 0.00 67 1015.4
20260507025514 17 0 0.0 0.0 0.00 0.00 0.00 67 1015.5
20260507020328 17 0 0.0 0.0 0.00 0.00 0.00 67 1015.6
20260507012900 17 0 0.0 0.0 0.00 0.00 0.00 67 1015.3
20260507011141 17 0 0.0 0.0 0.00 0.00 0.00 67 1015.4
20260507005428 17 0 0.0 0.0 0.00 0.00 0.00 67 1015.4
20260507003709 17 0 0.0 0.0 0.00 0.00 0.00 67 1015.5
20260507001953 17 0 0.0 0.0 0.00 0.00 0.00 67 1015.5
20260507000238 17 0 0.0 0.0 0.00 0.00 0.00 67 1015.4
20260506234522 17 0 0.0 0.0 0.00 0.00 0.00 67 1015.5
20260506232807 17 0 0.0 0.0 0.00 0.00 0.00 67 1015.5
20260506214432 17 0 0.0 0.0 0.00 0.00 0.00 66 1015.2
20260506212717 17 0 0.0 0.0 0.00 0.00 0.00 66 1015.0
20260506211002 17 0 0.0 0.0 0.00 0.00 0.00 66 1014.8
20260506205246 17 0 0.0 0.0 0.00 0.00 0.00 66 1014.7
20260506203535 17 0 0.0 0.0 0.00 0.00 0.00 66 1014.6
20260506201814 17 0 0.0 0.0 0.00 0.00 0.00 66 1014.4